Regional Weather Roundup
Issued by NWS

Home | Current Version | Previous Version | Graphics & Text | Print | Product List | Glossary On
Versions: 1 2 3 4 5 6 7 8 9 10 11 12 13 14 15 16 17 18 19 20 21 22 23 24 25 26 27 28 29 30 31 32 33 34 35 36 37 38 39 40 41 42 43 44 45 46 47 48 49 50
000
ASUS43 KIND 231409
RWRIN

WEATHER ROUNDUP FOR INDIANA
NATIONAL WEATHER SERVICE INDIANAPOLIS IN
1000 AM EDT SAT AUG 23 2014

NOTE: "FAIR" INDICATES FEW OR NO CLOUDS BELOW 12,000 FEET WITH NO
SIGNIFICANT WEATHER AND/OR OBSTRUCTIONS TO VISIBILITY.

* - STATION DOES NOT REPORT WEATHER SUCH AS PRECIPITATION OR FOG.

+ - STATION NOT QUALITY CONTROLLED BY THE NATIONAL WEATHER SERVICE.
    USE DATA WITH CAUTION...ESPECIALLY DEWPOINT AND RELATIVE
    HUMIDITY OBSERVATIONS.

INZ001>003-010>013-019-020-231500-
NORTHWEST INDIANA

CITY           SKY/WX    TMP DP  RH WIND       PRES   REMARKS
GARY /AIRPORT/ MOSUNNY   81  75  83 CALM      29.99S
KNOX *+        SUNNY     76  73  92 CALM      30.00R
LA PORTE +     PTSUNNY   73  73 100 CALM      30.02R FOG
MICHIGAN CITY+ SUNNY     77  73  88 CALM      30.01R
MONTICELLO +   SUNNY     76  74  92 CALM      29.99F
RENSSELAER +   MOSUNNY   75  75 100 CALM      30.00S
VALPARAISO     MOSUNNY   79  74  84 SE3       30.01R

$$

LMZ046-743>745-231500-
SOUTHERN LAKE MICHIGAN

STATION/POSITION TIME  TEMP WIND        PRES
                       AIR  DIR/SP/G
                 (UTC) (F)  (DEG/KT/KT) (MB)
MICHIGAN CITY    1400   75  240/  4/  5   N/A

$$

INZ004-005-014>016-021>024-231500-
NORTH CENTRAL INDIANA

CITY           SKY/WX    TMP DP  RH WIND       PRES   REMARKS
ELKHART        CLOUDY    75  73  94 SE5       30.02  FOG
GOSHEN         CLOUDY    77  72  84 SE8       30.01S HAZE
LOGANSPORT +   MOSUNNY   75  73  94 E3        30.01S
PERU/GRISSOM   SUNNY     77 N/A N/A VRB2      30.01S
ROCHESTER +    MOSUNNY   79  75  89 CALM      30.01S
SOUTH BEND     CLOUDY    75  73  93 SE5       30.02R FOG
WARSAW +       CLOUDY    73  73 100 E5        30.02R FOG

$$

INZ006>009-017-018-025>027-231500-
NORTHEAST INDIANA

CITY           SKY/WX    TMP DP  RH WIND       PRES   REMARKS
ANGOLA *+      CLOUDY    73  64  73 SE6       30.04R
AUBURN +       PTSUNNY   73  68  83 E5        30.04R HAZE
FORT WAYNE     CLOUDY    73  72  96 E5        30.02S FOG
HUNTINGTON +   CLOUDY    73  73 100 E3        30.01S FOG

$$

INZ028-029-035-036-043>045-051>053-231500-
WEST CENTRAL INDIANA

CITY           SKY/WX    TMP DP  RH WIND       PRES   REMARKS
GREENCASTLE +  CLOUDY    73  73 100 CALM      30.01S FOG
LAFAYETTE      MOSUNNY   78  72  81 E3        29.99S
TERRE HAUTE    SUNNY     78  73  84 SE5       29.98S

$$

INZ030>032-037>040-046>048-054>057-064-065-231500-
CENTRAL INDIANA

CITY           SKY/WX    TMP DP  RH WIND       PRES   REMARKS
ANDERSON       MOSUNNY   75  75 100 CALM      30.02S
CP ATTERBURY + CLOUDY    73  72  94 CALM      30.01S FOG
COLUMBUS       CLOUDY    73  73 100 CALM      30.02R FOG
FRANKFORT +    PTSUNNY   77  77 100 CALM      30.02S
INDIANAPOLIS   CLOUDY    79  71  76 SE7       30.00S
-EAGLE CREEK   MOSUNNY   79  71  76 S5        30.00S
KOKOMO *+      MOSUNNY   75  73  94 E5        30.00S
MARION +       CLOUDY    73  73  98 CALM      30.01F FOG
MT COMFORT *+  SUNNY     79  77  94 SE5       30.01S
SHELBYVILLE    MOSUNNY   80  73  79 VRB5      30.00F
ZIONSVILLE +   PTSUNNY   78  73  86 SE3       30.02S

$$

INZ033-034-041-042-049-050-058-059-231500-
EAST CENTRAL INDIANA

CITY           SKY/WX    TMP DP  RH WIND       PRES   REMARKS
MUNCIE         PTSUNNY   79  73  82 CALM      30.01S

$$

INZ060-061-067>069-081>083-085>088-231500-
SOUTHWEST INDIANA

CITY           SKY/WX    TMP DP  RH WIND       PRES   REMARKS
EVANSVILLE     SUNNY     82  73  74 SW9       29.97S
WASHINGTON +   SUNNY     78  74  87 S5        29.97S

$$

INZ062-063-066-070>080-084-089>092-231500-
SOUTH CENTRAL AND SOUTHEAST INDIANA

CITY           SKY/WX    TMP DP  RH WIND       PRES   REMARKS
BLOOMINGTON    PTSUNNY   77  72  84 SE5       30.00S
SEYMOUR +      PTSUNNY   75  63  64 CALM      30.01

$$




USA.gov is the U.S. government's official web portal to all federal, state and local government web resources and services.